Location: Bazugues
(43.4465°N, 0.3432°E)
Time: 14:43:53
(UTC+00:00)

USA 238 - Pass Details

Date: 12 January 2026
Orbit: 883 x 1328 km, 63.4° (Epoch: 10 January)

Event Time Altitude Azimuth Distance (km) Brightness Sun altitude
Rises 18:38:18 0° 323° (NW) 3,976 7.0 -20.1°
Reaches altitude 10° 18:40:54 10° 325° (NW) 3,074 6.4 -20.6°
Maximum altitude 18:48:24 81° 53° (NE) 1,265 3.9 -21.9°
Enters shadow 18:56:26 11° 141° (SE) 3,282 5.9 -23.4°
